Regional Weather Roundup
Issued by NWS

Home | Current Version | Previous Version | Text Only | Print | Product List | Glossary Off
Versions: 1 2 3 4 5 6 7 8 9 10 11 12 13 14 15 16 17 18 19 20 21 22 23 24 25 26 27

000
ASUS45 KPSR 160110
RWRAZ

ARIZONA HOURLY REGIONAL WEATHER ROUNDUP
NATIONAL WEATHER SERVICE PHOENIX AZ
600 PM MST MON JAN 15 2018

NOTE: FAIR INDICATES FEW OR NO CLOUDS BELOW 12,000 FEET WITH NO
SIGNIFICANT WEATHER AND/OR OBSTRUCTIONS TO VISIBILITY.

AZZ001>003-036-160200-
NORTHWEST ARIZONA

CITY           SKY/WX    TMP DP  RH WIND       PRES   REMARKS
BULLHEAD CITY  PTCLDY    70  34  26 N12G18    30.06R
KINGMAN        PTCLDY    56  34  43 N6        30.13R
$$

AZZ004>008-015-016-018-160200-
NORTH CENTRAL ARIZONA

CITY           SKY/WX    TMP DP  RH WIND       PRES   REMARKS
GRAND CANYON   PTCLDY    44  26  49 NE8       30.22R
WILLIAMS       MOCLDY    48  19  32 CALM      30.19R
PRESCOTT       MOCLDY    54  22  28 CALM      30.14R
FLAGSTAFF      MOCLDY    42  23  46 CALM      30.22R
PAYSON         MOCLDY    52  19  28 SW3       30.15S
PAGE           PTCLDY    47  31  53 W3        30.20R
$$

AZZ009>014-017-160200-
NORTHEAST ARIZONA

CITY           SKY/WX    TMP DP  RH WIND       PRES   REMARKS
WINSLOW        MOCLDY    48  21  34 W8        30.18R
SAINT JOHNS    MOCLDY    50  24  36 CALM      30.16S
WINDOW ROCK    MOCLDY    45  23  42 N5        30.21R
SHOW LOW       PTCLDY    48  19  32 N3        30.22R
$$

AZZ540-542>544-546-548-160200-
GREATER PHOENIX AREA

CITY           SKY/WX    TMP DP  RH WIND       PRES   REMARKS
PHOENIX        PTCLDY    71  30  21 W8        30.01S
BUCKEYE        PTCLDY    64  39  39 SW3       30.04R
GLENDALE       PTCLDY    68  34  28 CALM      30.04R
LUKE AFB       PTCLDY    67  36  31 S6        30.01R
DEER VALLEY    MOCLDY    68  29  23 SW5       30.03R
SCOTTSDALE     MOCLDY    69  30  23 CALM      30.05R
MESA-FALCON    PTCLDY    70  30  23 W5        30.04R
MESA-GATEWAY   PTCLDY    66  34  30 W6        30.04S
CHANDLER       CLEAR     68  34  28 CALM      30.03R
$$

AZZ539-553-160200-
SOUTHWEST MARICOPA COUNTY AND PINAL COUNTY

CITY           SKY/WX    TMP DP  RH WIND       PRES   REMARKS
CASA GRANDE    NOT AVBL
GILA BEND      FAIR      68  34  28 CALM      30.02S
$$

AZZ503-504-507>509-160200-
SOUTHEAST ARIZONA

CITY           SKY/WX    TMP DP  RH WIND       PRES   REMARKS
TUCSON         PTCLDY    68  25  19 N6        30.08R
DAVIS-MONTHAN  PTCLDY    66  24  20 NW8       30.06R
RYAN FIELD     CLEAR     66  21  18 MISG      30.08R
NOGALES        PTCLDY    65  12  12 W3        30.10R
SIERRA VISTA   PTCLDY    58  12  16 W9        30.14R
DOUGLAS        CLEAR     64  19  17 SE6       30.10S
SAFFORD        PTCLDY    59  21  23 W7        30.07S
$$

AZZ532-160200-
SOUTHWEST ARIZONA

CITY           SKY/WX    TMP DP  RH WIND       PRES   REMARKS
YUMA           NOT AVBL
$$

CAZ041-043-047-048-061-525>527-560>570-160200-
SOUTHERN CALIFORNIA

CITY           SKY/WX    TMP DP  RH WIND       PRES   REMARKS
DOWNTOWN L.A.  NOT AVBL
L.A. AIRPORT   CLOUDY    59  55  87 SW7       30.08F
SAN DIEGO      CLOUDY    61  56  83 NW6       30.11R
BURBANK        CLOUDY    68  41  37 SE6       30.07F
ONTARIO        CLOUDY    69  37  30 W8        30.09R
RIVERSIDE      MOCLDY    69  43  38 W7        30.08R
PALM SPRINGS   MOCLDY    73  40  30 CALM      30.05R
IMPERIAL       MOCLDY    73  38  27 CALM      30.01S
BLYTHE         MOCLDY    69  39  33 S6        30.04R
NEEDLES        PTCLDY    69  37  30 NW7       30.06R
$$

NVZ020-UTZ003-160200-
SOUTHERN NEVADA-UTAH

CITY           SKY/WX    TMP DP  RH WIND       PRES   REMARKS
LAS VEGAS      MOCLDY    64  35  34 CALM      30.11S
SALT LAKE CITY MOCLDY    38  31  76 CALM      30.29R
$$

NMZ009-TXZ055-160200-
NEW MEXICO-WEST TEXAS

CITY           SKY/WX    TMP DP  RH WIND       PRES   REMARKS
ALBUQUERQUE    MOCLDY    36  22  56 E29G35    30.22R WCI  23
EL PASO        MOCLDY    48  25  40 E20G25    30.19R
$$


........................KEY........................
SKY/WX - SKY CONDITION/WEATHER
TMP    - TEMPERATURE IN FAHRENHEIT
DP     - DEW POINT IN FAHRENHEIT
RH     - RELATIVE HUMIDITY IN PERCENT
WIND   - DIRECTION AND SPEED IN MILES PER HOUR (MPH)
VRB    - VARIABLE WIND DIRECTION
PRES   - MEAN SEA LEVEL PRESSURE IN INCHES OF MERCURY
         F - FALLING PRESSURE   R - RISING PRESSURE
         S - STEADY PRESSURE
VSB    - VISIBILITY IN MILES
HX     - HEAT INDEX IN FAHRENHEIT
WCI    - WIND CHILL INDEX IN FAHRENHEIT
TC     - TEMPERATURE IN CELSIUS WHICH IS ALSO KNOWN AS
         TEMPERATURE IN CENTIGRADE
AFB    - AIR FORCE BASE
         LUKE AFB IS LUKE AIR FORCE BASE
         DAVIS-MONTHAN IS DAVIS-MONTHAN AIR FORCE BASE
NAS    - NAVAL AIR STATION
         EL CENTRO NAS IS EL CENTRO NAVAL AIR STATION
N/A    - NOT AVAILABLE





USA.gov is the U.S. government's official web portal to all federal, state and local government web resources and services.